TimeEDT,TemperatureF,Dew PointF,Humidity,Sea Level PressureIn,VisibilityMPH,Wind Direction,Wind SpeedMPH,Gust SpeedMPH,PrecipitationIn,Events,Conditions,WindDirDegrees,DateUTC
12:52 AM,37.0,14.0,39,29.81,10.0,WNW,9.2,20.7,N/A,,Clear,300,2013-04-02 04:52:00
1:52 AM,36.0,12.0,37,29.83,10.0,WNW,8.1,16.1,N/A,,Clear,300,2013-04-02 05:52:00
2:52 AM,35.1,14.0,42,29.83,10.0,WNW,8.1,20.7,N/A,,Clear,290,2013-04-02 06:52:00
3:52 AM,34.0,10.9,38,29.85,10.0,WNW,8.1,21.9,N/A,,Clear,300,2013-04-02 07:52:00
4:52 AM,33.1,12.0,42,29.86,10.0,Variable,6.9,-,N/A,,Clear,0,2013-04-02 08:52:00
5:52 AM,32.0,12.0,44,29.88,10.0,West,6.9,-,N/A,,Clear,280,2013-04-02 09:52:00
6:52 AM,30.9,12.9,47,29.90,10.0,West,4.6,-,N/A,,Clear,270,2013-04-02 10:52:00
7:52 AM,34.0,15.1,46,29.92,10.0,West,8.1,16.1,N/A,,Clear,270,2013-04-02 11:52:00
8:52 AM,36.0,14.0,41,29.93,10.0,Variable,6.9,20.7,N/A,,Clear,0,2013-04-02 12:52:00
9:52 AM,37.9,15.1,39,29.91,10.0,WSW,11.5,21.9,N/A,,Scattered Clouds,240,2013-04-02 13:52:00
10:52 AM,39.9,17.1,40,29.91,10.0,WSW,13.8,27.6,N/A,,Mostly Cloudy,250,2013-04-02 14:52:00
11:52 AM,39.0,17.1,41,29.89,10.0,SW,15.0,23.0,N/A,,Mostly Cloudy,230,2013-04-02 15:52:00
1:52 PM,39.0,19.0,45,29.87,10.0,SW,17.3,28.8,N/A,,Overcast,230,2013-04-02 17:52:00
2:52 PM,39.0,18.0,43,29.86,10.0,WSW,11.5,26.5,N/A,,Overcast,240,2013-04-02 18:52:00
3:52 PM,39.0,19.0,45,29.85,10.0,WSW,13.8,29.9,N/A,,Overcast,240,2013-04-02 19:52:00
4:52 PM,39.9,21.0,47,29.84,10.0,SW,13.8,27.6,N/A,,Overcast,230,2013-04-02 20:52:00
5:52 PM,39.9,9.0,28,29.87,10.0,West,11.5,20.7,N/A,,Mostly Cloudy,280,2013-04-02 21:52:00
6:52 PM,39.0,7.0,27,29.90,10.0,West,11.5,24.2,N/A,,Partly Cloudy,280,2013-04-02 22:52:00
7:52 PM,37.0,8.1,30,29.93,10.0,West,8.1,-,N/A,,Clear,270,2013-04-02 23:52:00
8:52 PM,36.0,9.0,33,29.96,10.0,West,9.2,17.3,N/A,,Clear,270,2013-04-03 00:52:00
9:52 PM,36.0,9.0,33,29.98,10.0,West,8.1,20.7,N/A,,Clear,280,2013-04-03 01:52:00
10:52 PM,34.0,10.9,38,29.98,10.0,West,5.8,-,N/A,,Clear,280,2013-04-03 02:52:00
11:52 PM,32.0,10.9,42,29.99,10.0,Variable,5.8,-,N/A,,Clear,0,2013-04-03 03:52:00